FENGYUN 1C DEB, 31988

Orbit data source: Space-Track

FENGYUN 1C DEB, 31988 is space debris in SSO originally from a launch on Mon, 10 May 1999 UTC launched from the Taiyaun Space Center, China (TSC). Fengyun 1C debris stems from the Chinese weather satellite Fengyun-1C, which was intentionally destroyed by a Chinese anti-satellite missile in 2007. This event dramatically increased the amount of space debris, with thousands of trackable fragments posing hazards to satellites and human spaceflight. The Fengyun 1C debris cloud has become a focal point in discussions about space sustainability and the need for international regulations to prevent the creation of new debris.

Loading next visibility...
Identifier
31988, 1999-025CPR
Orbit
SSO
Country
Flag of CNCN / PRC
Related business
Manufacturer
Unknown
Mission
Spacecraft
Bus & Motor
Unknown
Mass
Unknown
Launch date (UTC)
1999-05-10 (27 years ago)
Launch vehicle
Unknown
Launch site
Taiyaun Space Center, China (TSC)
Object type
Payload
Rocket body
Debris
Shape & HBR
Unknown shape, 1.1 m
Radar Cross Section
Medium (>0.1 m² and <1 m²)

Expand to show TLE details & history
Last TLE update: 5 days ago

TLE from 5 days ago
0 FENGYUN 1C DEB
1 31988U 99025CPR 26204.39001650  .00002258  00000-0  10219-2 0  9994
2 31988  98.1207 261.0241 0058796 357.9041   2.1883 14.21981438673153
Epoch: 2026-07-23T09:21Z
TLE epoch observation values (Epoch: 2026-07-23T09:21:37.425Z)
Latitude
-0.00006°
Longitude
179.48648°
Altitude
779.303 km
Speed
7.486 km/s
True Right ascension
17h 24m 05s
True Declination
0° 00' 00"
Sunlit
Object was in full shadow at epoch
Visualization orbit readout
Latitude
Unknown
Longitude
Unknown
Altitude
Unknown
Speed
Unknown
Apparent Right ascension
Unknown
Apparent Declination
Unknown
Sunlit
N/A
Visualization observer readout
Local Sidereal Time
09:54:59
Azimuth
Unknown
Elevation
Unknown
Doppler factor
Unknown
Orbital elements
Apogee altitude
858.085 km
Perigee altitude
773.491 km
Semi-major axis
7,193.925 km
Eccentricity
0.00588
Inclination
98.1207°
RAAN
261.0241°
Arg. of periapsis
357.9041°
True anomaly
2.21422°
Mean anomaly
2.1883°
Eccentric anomaly
2.20124°
Mean motion
3.55709 °/min
Orbital period
101.21 mins
BSTAR
0.0010219
Loading maneuver chart data...
Computing Atmospheric mass density...

Documentation

Showing up to 5 results
|